Walnut Ridge, AR

12:08 PM CDT on April 27, 2017 (GMT -0500)
Walnut Ridge Regional

Weather History for KARG - February, 2013

Change the Weather History Date:

Friday, February 22, 2013

  Actual Average Record
Temperature  
Mean Temperature 37 °F -  
Max Temperature 42 °F 49 °F 68 °F (2017)
Min Temperature 32 °F 34 °F 23 °F (2009)
Degree Days  
Heating Degree Days 28    
Moisture  
Dew Point 31 °F    
Average Humidity 83    
Maximum Humidity 100    
Minimum Humidity 57    
Precipitation  
Precipitation 0.00 in - - ()
Sea Level Pressure  
Sea Level Pressure 30.02 in    
Wind  
Wind Speed 4 mph (WNW)    
Max Wind Speed 16 mph    
Max Gust Speed 18 mph    
Visibility 7 miles    
Events      
Averages and records for this station are not official NWS values.
T = Trace of Precipitation, MM = Missing Value Source: NWS Daily Summary

Daily Weather History Graph

Daily Weather History Graph

Search for Another Location

Airport or City:

Trip Planner

Search our weather history database for the weather conditions in past years. The results will help you decide how hot, cold, wet, or windy it might be!

Date:

Astronomy

Feb. 22, 2013 Rise Set
Actual Time 6:42 AM CST 5:52 PM CST
Civil Twilight 6:16 AM CST 6:18 PM CST
Nautical Twilight 5:46 AM CST 6:48 PM CST
Astronomical Twilight 5:17 AM CST 7:17 PM CST
Moon 3:07 PM CST (2/22) 4:24 AM CST (2/22)
Length of Visible Light 12h 01m
Length of Day
11h 09m
Waxing Gibbous, 90% of the Moon is Illuminated
Feb 22
Waxing Gibbous
Feb 25
Full
Mar 4
Last Quarter
Mar 11
New
Mar 19
First Quarter

Hourly Weather History & Observations

Time (CST) Temp. Windchill Dew Point Humidity Pressure Visibility Wind Dir Wind Speed Gust Speed Precip Events Conditions
12:15 AM 32.0 °F - 32.0 °F 100% 29.86 in 0.2 mi Calm Calm - N/A   Overcast
12:55 AM 32.0 °F - 32.0 °F 100% 29.88 in 0.2 mi Calm Calm - N/A   Overcast
1:15 AM 32.0 °F - 32.0 °F 100% 29.89 in 0.2 mi Calm Calm - N/A   Overcast
1:35 AM 32.0 °F - 32.0 °F 100% 29.88 in 0.2 mi Calm Calm - N/A   Overcast
1:55 AM 32.0 °F - 30.2 °F 93% 29.89 in 0.2 mi Calm Calm - N/A   Overcast
2:15 AM 32.0 °F - 32.0 °F 100% 29.90 in 0.2 mi Calm Calm - N/A   Overcast
2:35 AM 33.8 °F - 32.0 °F 93% 29.91 in 0.2 mi Calm Calm - N/A   Overcast
2:55 AM 32.0 °F - 32.0 °F 100% 29.91 in 0.2 mi Calm Calm - N/A   Overcast
3:15 AM 32.0 °F - 32.0 °F 100% 29.91 in 0.2 mi Calm Calm - N/A   Overcast
3:35 AM 32.0 °F - 32.0 °F 100% 29.93 in 0.2 mi Calm Calm - N/A   Overcast
3:55 AM 32.0 °F - 32.0 °F 100% 29.93 in 0.2 mi Calm Calm - N/A   Overcast
4:15 AM 33.8 °F - 32.0 °F 93% 29.93 in 0.5 mi Calm Calm - N/A   Overcast
4:35 AM 33.8 °F - 32.0 °F 93% 29.94 in 1.0 mi Calm Calm - N/A   Overcast
4:55 AM 33.8 °F - 32.0 °F 93% 29.95 in 0.5 mi Calm Calm - N/A   Overcast
5:15 AM 33.8 °F - 33.8 °F 100% 29.95 in 2.5 mi Calm Calm - N/A   Overcast
5:35 AM 33.8 °F - 32.0 °F 93% 29.94 in 3.0 mi Calm Calm - N/A   Overcast
5:55 AM 33.8 °F - 32.0 °F 93% 29.95 in 3.0 mi Calm Calm - N/A   Mostly Cloudy
6:15 AM 33.8 °F - 33.8 °F 100% 29.96 in 1.0 mi Calm Calm - N/A   Overcast
6:35 AM 33.8 °F - 33.8 °F 100% 29.97 in 1.5 mi Calm Calm - N/A   Overcast
6:55 AM 33.8 °F - 32.0 °F 93% 29.99 in 5.0 mi Calm Calm - N/A   Overcast
7:35 AM 33.8 °F - 32.0 °F 93% 30.00 in 5.0 mi Calm Calm - N/A   Overcast
7:55 AM 33.8 °F - 33.8 °F 100% 30.01 in 2.5 mi Calm Calm - N/A   Overcast
8:15 AM 33.8 °F - 33.8 °F 100% 30.02 in 2.5 mi Calm Calm - N/A   Overcast
8:35 AM 33.8 °F - 33.8 °F 100% 30.03 in 3.0 mi Calm Calm - N/A   Overcast
8:55 AM 33.8 °F - 32.0 °F 93% 30.04 in 3.0 mi Calm Calm - N/A   Overcast
9:15 AM 35.6 °F - 35.6 °F 100% 30.05 in 4.0 mi Calm Calm - N/A   Overcast
9:35 AM 35.6 °F 28.0 °F 35.6 °F 100% 30.06 in 5.0 mi WSW 10.4 mph - N/A   Overcast
10:15 AM 37.4 °F 29.3 °F 35.6 °F 93% 30.07 in 9.0 mi SW 12.7 mph - N/A   Overcast
10:35 AM 37.4 °F 28.2 °F 35.6 °F 93% 30.07 in 10.0 mi WSW 16.1 mph - N/A   Overcast
10:55 AM 39.2 °F 30.5 °F 33.8 °F 81% 30.08 in 10.0 mi WSW 16.1 mph - N/A   Overcast
11:15 AM 39.2 °F 30.8 °F 33.8 °F 81% 30.08 in 10.0 mi West 15.0 mph - N/A   Overcast
11:35 AM 41.0 °F 33.1 °F 35.6 °F 81% 30.06 in 10.0 mi West 15.0 mph - N/A   Mostly Cloudy
11:55 AM 41.0 °F 32.8 °F 33.8 °F 76% 30.06 in 10.0 mi West 16.1 mph - N/A   Partly Cloudy
12:15 PM 39.2 °F 31.2 °F 33.8 °F 81% 30.06 in 10.0 mi West 13.8 mph - N/A   Partly Cloudy
12:35 PM 41.0 °F 34.3 °F 33.8 °F 76% 30.06 in 10.0 mi WSW 11.5 mph - N/A   Mostly Cloudy
12:55 PM 41.0 °F 33.5 °F 32.0 °F 70% 30.06 in 10.0 mi WSW 13.8 mph 18.4 mph N/A   Scattered Clouds
1:15 PM 42.8 °F 36.2 °F 30.2 °F 61% 30.05 in 10.0 mi WSW 12.7 mph - N/A   Scattered Clouds
1:35 PM 42.8 °F 37.0 °F 32.0 °F 66% 30.04 in 10.0 mi West 10.4 mph 16.1 mph N/A   Scattered Clouds
1:55 PM 42.8 °F 37.0 °F 30.2 °F 61% 30.03 in 10.0 mi WNW 10.4 mph - N/A   Partly Cloudy
2:15 PM 42.8 °F 36.2 °F 30.2 °F 61% 30.03 in 10.0 mi West 12.7 mph 17.3 mph N/A   Clear
2:35 PM 42.8 °F 36.2 °F 30.2 °F 61% 30.02 in 10.0 mi WNW 12.7 mph - N/A   Clear
2:55 PM 42.8 °F 36.2 °F 30.2 °F 61% 30.01 in 10.0 mi WNW 12.7 mph 18.4 mph N/A   Clear
3:15 PM 42.8 °F 37.0 °F 30.2 °F 61% 30.02 in 10.0 mi WNW 10.4 mph 16.1 mph N/A   Clear
3:35 PM 42.8 °F 35.8 °F 28.4 °F 57% 30.02 in 10.0 mi WNW 13.8 mph - N/A   Clear
3:55 PM 42.8 °F 35.8 °F 30.2 °F 61% 30.03 in 10.0 mi NW 13.8 mph - N/A   Clear
4:15 PM 41.0 °F 34.7 °F 30.2 °F 65% 30.03 in 10.0 mi WNW 10.4 mph - N/A   Clear
4:35 PM 41.0 °F 35.2 °F 30.2 °F 65% 30.03 in 10.0 mi NW 9.2 mph - N/A   Clear
4:55 PM 39.2 °F 31.6 °F 28.4 °F 65% 30.03 in 10.0 mi NW 12.7 mph - N/A   Clear
5:15 PM 39.2 °F 32.5 °F 28.4 °F 65% 30.04 in 10.0 mi NW 10.4 mph - N/A   Clear
5:35 PM 37.4 °F 31.4 °F 28.4 °F 70% 30.05 in 10.0 mi NW 8.1 mph - N/A   Clear
5:55 PM 37.4 °F 30.3 °F 30.2 °F 75% 30.06 in 10.0 mi NW 10.4 mph - N/A   Clear
6:15 PM 35.6 °F 28.0 °F 28.4 °F 75% 30.06 in 10.0 mi NW 10.4 mph - N/A   Clear
6:35 PM 35.6 °F 28.6 °F 28.4 °F 75% 30.07 in 10.0 mi NW 9.2 mph - N/A   Clear
6:55 PM 35.6 °F 28.0 °F 28.4 °F 75% 30.08 in 10.0 mi NNW 10.4 mph - N/A   Clear
7:15 PM 35.6 °F 30.7 °F 28.4 °F 75% 30.09 in 10.0 mi NW 5.8 mph - N/A   Clear
7:35 PM 33.8 °F 27.7 °F 28.4 °F 81% 30.10 in 10.0 mi NNW 6.9 mph - N/A   Clear
7:55 PM 33.8 °F 29.6 °F 28.4 °F 81% 30.10 in 10.0 mi NNW 4.6 mph - N/A   Clear
8:15 PM 33.8 °F 30.8 °F 28.4 °F 81% 30.10 in 10.0 mi NW 3.5 mph - N/A   Clear
8:55 PM 33.8 °F - 28.4 °F 81% 30.11 in 10.0 mi Calm Calm - N/A   Clear
9:15 PM 33.8 °F - 28.4 °F 81% 30.11 in 10.0 mi Calm Calm - N/A   Clear
9:35 PM 33.8 °F - 28.4 °F 81% 30.12 in 10.0 mi Calm Calm - N/A   Clear
9:55 PM 33.8 °F 30.8 °F 28.4 °F 81% 30.11 in 10.0 mi WNW 3.5 mph - N/A   Clear
10:15 PM 33.8 °F - 28.4 °F 81% 30.11 in 10.0 mi Calm Calm - N/A   Clear
10:35 PM 33.8 °F 30.8 °F 28.4 °F 81% 30.11 in 10.0 mi West 3.5 mph - N/A   Clear
10:55 PM 33.8 °F 29.6 °F 28.4 °F 81% 30.11 in 10.0 mi West 4.6 mph - N/A   Clear
11:15 PM 32.0 °F 26.4 °F 26.6 °F 80% 30.11 in 10.0 mi WNW 5.8 mph - N/A   Clear
11:35 PM 32.0 °F 26.4 °F 26.6 °F 80% 30.11 in 10.0 mi WNW 5.8 mph - N/A   Clear
11:55 PM 32.0 °F 26.4 °F 26.6 °F 80% 30.10 in 10.0 mi WNW 5.8 mph - N/A   Clear